Wind_Speed
11 13 16 18 20 23 25 27 29 30 31 32 35 37 37 37 38 39 40 40 40 40 40 39 39 38 37 35 34 32 30 29 29 29 27 25 23 21 18 15 15 18 20 21
13 16 18 19 22 24 25 26 29 32 35 37 39 41 41 40 41 42 41 40 40 40 40 39 39 39 37 34 32 30 28 27 27 26 24 21 19 17 15 11 7 8 9 11
18 19 21 22 24 29 31 30 31 35 39 41 41 42 42 40 41 43 42 40 39 39 38 39 39 38 36 33 31 29 27 26 25 23 20 17 16 14 12 9 7 5 4 6
25 26 27 23 31 34 35 36 38 40 42 42 42 43 43 43 44 45 44 42 39 38 38 39 39 38 35 32 30 28 26 25 22 19 17 15 14 11 10 8 7 6 6 7
27 29 30 30 36 39 40 42 45 46 47 47 47 47 45 45 45 44 44 44 42 40 38 38 38 38 36 30 29 27 25 23 20 16 14 13 12 11 10 9 9 9 9 9
32 35 36 39 42 44 46 48 50 50 51 52 51 51 48 47 46 45 45 44 44 42 39 37 37 37 35 30 28 26 23 20 17 15 13 12 12 11 11 11 11 11 11 11
38 40 42 46 47 49 51 52 52 52 53 53 52 53 53 51 49 49 48 46 46 44 40 37 37 36 33 29 27 26 22 19 17 15 14 12 12 12 12 12 11 10 9 9
40 42 45 47 49 51 53 55 56 57 58 58 59 61 60 57 54 51 50 48 46 43 41 37 36 36 32 29 28 26 24 21 18 16 14 13 13 12 12 10 9 8 7 6
43 46 48 50 52 53 55 57 59 61 62 63 64 66 66 64 60 55 52 48 45 43 41 38 38 36 32 29 28 28 27 24 21 19 16 14 13 11 11 10 8 7 6 4
45 48 51 53 55 57 59 61 64 66 68 69 69 69 68 66 63 60 56 50 46 43 42 41 38 35 32 30 29 30 31 28 25 22 19 16 14 12 11 10 8 7 6 6
46 49 52 55 58 61 63 66 67 69 71 72 74 73 71 67 65 65 60 52 46 44 44 44 41 34 32 32 30 31 33 32 29 25 22 19 16 15 13 12 10 9 8 7
50 53 56 60 64 68 70 70 70 71 73 75 78 79 76 72 69 67 63 57 50 46 45 45 44 39 35 33 33 31 34 35 32 28 25 22 19 16 15 14 12 11 10 9
54 59 64 68 72 74 75 75 74 76 79 81 79 76 72 68 66 66 67 65 58 50 46 45 45 43 39 35 35 32 33 37 36 32 28 26 23 19 17 16 15 14 13 12
62 67 71 74 76 76 76 77 77 75 72 69 65 60 56 53 52 52 54 55 55 51 46 44 44 45 43 39 37 34 32 35 38 36 31 29 26 24 21 20 19 18 17 16
69 73 75 76 75 74 72 66 60 56 53 50 48 47 46 44 42 39 39 40 44 47 46 44 43 44 45 42 37 36 33 33 38 38 34 31 29 27 25 23 22 21 20 19
72 74 75 74 71 65 58 53 50 48 46 44 42 42 41 40 39 38 36 35 36 40 42 43 43 43 44 43 39 37 34 32 36 39 38 35 32 29 26 24 23 21 20 20
75 75 74 70 62 54 49 47 46 45 44 44 44 43 42 41 39 38 36 35 34 34 37 41 42 41 41 41 39 36 33 30 30 35 39 39 36 33 29 27 24 22 20 21
72 70 65 58 52 48 46 45 46 47 47 46 45 44 42 40 38 35 34 33 31 30 33 38 40 38 37 39 38 37 33 30 27 30 34 37 37 36 33 30 27 24 22 21
66 60 54 50 47 47 47 49 50 50 50 49 47 44 41 40 38 36 34 31 27 25 31 36 38 36 35 36 37 36 32 29 25 25 28 31 34 35 33 31 28 26 23 21
57 51 48 45 44 46 48 50 51 51 50 50 49 46 43 40 37 34 32 29 24 23 29 34 35 34 32 32 35 35 31 28 23 22 23 25 27 30 29 28 27 24 22 20
50 46 43 42 43 45 47 49 51 50 50 50 49 46 42 38 35 32 29 25 21 21 29 34 33 32 30 31 33 34 32 28 23 21 21 22 25 27 26 25 24 22 19 18
44 42 40 40 43 44 46 47 49 50 50 49 48 45 41 36 31 27 23 20 19 22 29 32 31 30 29 29 32 33 32 28 23 22 22 24 25 25 24 23 21 18 16 15
40 38 38 39 41 42 43 44 47 49 50 48 46 42 37 31 25 20 16 17 19 24 29 30 29 29 28 30 32 32 30 27 24 23 23 25 26 25 23 21 19 16 14 13
37 35 35 36 38 39 41 43 46 48 48 46 44 39 32 24 15 10 10 15 21 26 28 28 27 27 27 29 31 31 29 27 25 24 25 26 26 25 23 20 17 15 13 12
34 32 32 33 35 37 40 42 44 46 46 44 42 36 28 18 8 2 8 15 20 25 26 26 25 25 26 29 32 31 30 28 25 25 26 27 26 24 22 19 17 15 13 11
31 29 29 31 32 35 37 40 42 43 45 44 41 36 28 17 8 6 11 17 21 23 23 22 23 24 25 28 30 31 30 28 26 27 28 28 26 24 22 19 17 15 13 12
27 26 27 27 29 31 33 37 40 40 40 41 39 35 28 18 12 14 17 19 21 20 18 19 20 21 23 26 30 32 32 30 28 29 29 27 25 23 21 19 18 16 15 14
Wind_Direction
300 295 292 293 294 291 290 293 295 298 298 297 295 297 301 303 305 305 307 308 309 309 310 309 307 302 295 290 288 287 289 293 299 304 305 304 306 309 306 293 269 247 241 235
306 303 304 305 302 297 299 302 300 300 299 299 301 303 304 306 305 304 305 307 307 308 309 310 309 306 298 290 287 285 287 292 299 303 302 300 301 309 313 310 281 248 233 228
311 309 309 310 302 303 308 307 303 299 299 301 303 303 303 304 302 302 304 305 305 307 309 310 311 310 302 290 284 282 284 289 295 299 299 297 296 301 305 306 300 283 257 245
314 313 316 312 302 303 306 306 302 301 303 303 301 301 302 301 300 302 303 304 304 305 307 308 309 311 306 291 282 280 282 287 291 293 292 291 290 293 294 293 288 283 275 261
311 312 311 304 300 305 310 310 307 306 305 302 302 301 300 298 297 298 298 300 301 302 302 303 305 307 307 292 280 278 279 282 285 285 286 287 283 283 284 283 283 281 276 269
307 308 309 305 306 310 310 310 308 306 304 303 302 300 299 297 295 294 293 294 295 296 296 297 299 301 303 291 278 275 275 275 276 278 279 280 279 276 279 281 283 282 280 274
308 307 305 305 309 308 308 305 302 301 301 300 299 298 297 295 292 289 288 288 289 291 290 291 293 295 296 288 275 270 267 265 267 272 276 278 277 274 274 276 280 276 272 272
306 304 303 305 305 305 303 302 301 300 299 298 295 294 294 292 289 286 284 283 283 283 283 285 286 287 288 282 272 263 258 258 261 266 271 274 271 266 263 264 266 262 259 268
306 303 302 302 303 304 303 302 301 299 296 294 291 289 289 288 287 285 282 278 277 277 275 276 275 277 278 275 267 256 251 253 256 260 264 265 262 254 248 248 245 241 240 247
304 304 305 305 306 306 305 302 299 296 294 292 290 288 287 287 285 283 278 274 271 269 268 267 265 267 270 267 262 252 246 247 250 254 257 259 254 245 238 235 232 230 236 247
304 306 306 306 306 306 304 301 298 295 292 290 288 287 285 283 281 278 275 271 268 265 263 261 262 260 263 261 259 251 243 242 245 249 252 252 248 240 234 231 230 236 244 255
308 308 308 308 308 307 305 302 298 294 291 288 287 285 283 280 277 275 274 275 272 267 263 259 259 257 254 255 253 251 242 238 239 243 246 246 244 239 234 230 231 238 248 258
309 310 311 312 311 309 307 304 300 296 294 294 295 297 296 291 284 278 275 276 274 269 263 258 255 254 251 249 247 248 244 236 235 238 241 242 241 240 238 235 235 239 248 257
314 315 315 314 312 309 305 303 302 303 304 306 307 307 307 304 298 291 283 276 270 265 260 255 251 249 247 244 241 243 244 236 231 232 236 238 238 239 240 241 242 244 249 256
320 319 316 314 311 308 308 310 313 316 317 317 316 315 313 310 306 298 290 280 268 259 254 249 246 243 242 241 235 235 239 237 230 228 231 233 235 236 239 243 246 249 254 259
320 317 315 313 313 314 316 317 318 318 318 316 314 313 311 310 307 302 294 285 271 257 248 243 241 240 239 236 232 229 232 236 231 227 226 229 232 235 238 242 246 249 253 258
320 318 317 316 317 318 319 320 320 319 317 314 311 309 307 306 305 301 298 290 276 258 243 236 234 236 235 232 226 222 226 235 235 231 229 228 231 234 237 240 245 248 251 256
318 316 316 317 319 321 323 324 323 321 318 315 312 309 306 304 302 301 298 293 279 258 237 227 227 230 231 229 222 216 221 231 235 234 233 231 232 231 233 236 241 246 250 254
318 317 318 320 321 322 324 324 323 321 320 317 316 312 308 303 299 298 298 293 281 256 229 219 220 224 225 224 217 212 214 221 228 235 237 233 229 228 229 231 237 243 246 247
319 319 320 321 322 323 324 324 324 323 322 319 317 313 308 303 297 293 292 289 275 246 218 210 213 219 221 218 211 209 211 215 225 234 233 227 222 219 220 225 232 236 237 240
321 321 323 324 325 327 327 328 327 326 324 323 319 315 310 304 295 288 285 279 259 228 205 202 207 212 213 212 209 209 209 212 222 227 225 218 209 207 213 221 225 228 228 233
323 324 326 327 329 331 331 332 331 329 328 328 323 319 314 306 296 286 277 260 230 207 195 195 200 204 206 207 205 205 205 209 216 218 216 207 203 206 210 213 215 216 220 226
325 327 329 331 334 335 336 336 335 334 333 332 329 326 321 312 299 283 260 231 204 192 186 188 192 197 200 200 198 200 201 206 212 213 209 203 202 204 204 204 206 210 216 223
326 329 332 335 337 339 340 342 343 341 339 338 337 336 333 325 306 274 235 206 188 180 178 181 185 191 195 195 194 196 199 204 208 208 205 201 198 198 198 199 202 207 213 219
328 332 335 338 341 343 345 346 348 350 349 348 349 351 350 347 342 254 184 177 172 172 175 178 184 189 191 190 191 193 196 200 204 203 199 195 194 194 195 197 202 207 213 219
330 334 338 341 344 346 349 351 354 355 359 360 1 5 10 16 34 107 147 156 159 164 170 177 182 186 187 188 190 191 191 194 198 197 193 191 191 193 195 200 206 211 217 223
332 334 338 342 345 350 355 357 0 1 3 6 8 11 18 33 66 107 125 135 143 150 163 174 181 185 188 191 192 190 190 192 194 193 191 191 193 196 201 207 212 219 226 232
Height
5842 5839 5837 5835 5833 5830 5827 5824 5820 5817 5813 5809 5802 5797 5793 5789 5784 5779 5774 5769 5764 5758 5753 5747 5742 5738 5734 5731 5729 5727 5725 5722 5720 5716 5712 5709 5705 5701 5697 5694 5693 5694 5696 5698
5839 5836 5833 5831 5828 5825 5822 5818 5814 5809 5805 5800 5795 5790 5785 5781 5777 5771 5766 5761 5756 5751 5746 5740 5735 5731 5726 5724 5722 5720 5718 5716 5714 5711 5708 5705 5702 5699 5696 5693 5692 5692 5693 5695
5835 5832 5829 5826 5822 5818 5815 5812 5807 5801 5797 5791 5787 5782 5777 5773 5767 5761 5757 5753 5748 5743 5738 5733 5728 5724 5720 5717 5716 5714 5712 5711 5709 5707 5704 5702 5699 5697 5695 5693 5692 5691 5692 5694
5828 5826 5823 5822 5815 5811 5807 5803 5797 5792 5787 5782 5777 5773 5768 5762 5756 5752 5747 5743 5739 5734 5729 5724 5720 5716 5713 5711 5709 5708 5706 5705 5704 5702 5700 5698 5696 5695 5693 5692 5691 5691 5691 5692
5822 5819 5816 5813 5805 5802 5798 5792 5786 5781 5776 5770 5765 5761 5757 5751 5746 5741 5737 5733 5729 5725 5721 5717 5712 5708 5705 5703 5702 5702 5701 5699 5698 5697 5696 5694 5693 5692 5691 5690 5690 5690 5690 5691
5815 5810 5806 5802 5796 5791 5788 5782 5774 5768 5762 5757 5752 5748 5745 5739 5734 5730 5726 5722 5718 5715 5712 5708 5704 5701 5698 5696 5696 5695 5695 5694 5693 5692 5691 5690 5689 5689 5688 5688 5687 5687 5687 5688
5805 5801 5796 5790 5787 5782 5777 5771 5764 5758 5751 5745 5739 5734 5729 5724 5720 5716 5712 5709 5706 5704 5701 5699 5696 5693 5690 5689 5688 5689 5689 5688 5687 5687 5686 5686 5685 5685 5684 5684 5684 5684 5684 5684
5799 5794 5790 5784 5777 5771 5765 5757 5749 5743 5736 5730 5724 5717 5712 5707 5703 5700 5697 5694 5692 5691 5689 5688 5686 5683 5682 5681 5681 5682 5682 5682 5682 5681 5681 5681 5680 5680 5680 5680 5681 5681 5681 5682
5789 5784 5777 5771 5765 5758 5750 5742 5734 5727 5719 5712 5705 5698 5692 5688 5684 5682 5680 5678 5677 5676 5675 5674 5672 5670 5670 5671 5672 5673 5675 5675 5676 5676 5676 5676 5676 5676 5676 5677 5677 5678 5679 5680
5779 5771 5764 5758 5751 5743 5735 5726 5717 5708 5699 5691 5683 5676 5670 5666 5663 5661 5661 5659 5659 5659 5659 5658 5655 5655 5658 5660 5662 5663 5666 5668 5669 5670 5670 5670 5671 5672 5673 5674 5674 5675 5676 5678
5769 5762 5753 5745 5737 5728 5718 5708 5697 5687 5677 5668 5659 5653 5648 5644 5642 5640 5639 5638 5639 5641 5642 5641 5639 5640 5644 5648 5650 5652 5655 5659 5661 5663 5664 5665 5666 5667 5669 5670 5671 5672 5674 5675
5756 5748 5739 5730 5720 5708 5697 5686 5675 5665 5655 5645 5634 5626 5622 5619 5618 5616 5615 5616 5618 5622 5624 5625 5626 5626 5629 5633 5637 5641 5644 5649 5652 5655 5657 5659 5661 5662 5664 5666 5667 5669 5670 5672
5742 5732 5722 5711 5700 5687 5673 5661 5650 5640 5629 5618 5609 5600 5593 5591 5590 5591 5591 5593 5596 5600 5605 5608 5611 5612 5615 5619 5624 5629 5633 5638 5642 5646 5650 5652 5654 5657 5659 5661 5663 5665 5667 5668
5726 5715 5704 5691 5678 5665 5651 5639 5628 5617 5606 5596 5587 5580 5573 5568 5565 5565 5566 5568 5572 5578 5584 5590 5595 5598 5601 5604 5610 5616 5621 5626 5632 5637 5641 5645 5648 5650 5653 5656 5658 5661 5663 5664
5708 5695 5683 5670 5657 5645 5632 5621 5610 5600 5591 5582 5574 5567 5560 5554 5550 5547 5545 5546 5549 5556 5563 5571 5577 5581 5585 5589 5594 5602 5608 5614 5620 5627 5632 5637 5640 5644 5647 5650 5652 5655 5658 5659
5691 5677 5663 5650 5638 5627 5617 5607 5597 5589 5580 5571 5564 5557 5550 5543 5538 5534 5531 5530 5530 5535 5544 5552 5560 5566 5570 5575 5580 5589 5596 5603 5608 5615 5622 5627 5632 5636 5640 5643 5646 5649 5652 5653
5672 5658 5645 5632 5622 5613 5604 5596 5587 5578 5570 5562 5554 5546 5539 5533 5528 5523 5519 5517 5516 5519 5526 5534 5543 5550 5557 5562 5569 5577 5586 5592 5598 5604 5611 5617 5623 5628 5632 5636 5640 5643 5646 5647
5655 5641 5628 5617 5608 5601 5593 5586 5577 5568 5559 5551 5542 5535 5528 5522 5517 5512 5509 5505 5503 5505 5511 5519 5528 5537 5545 5552 5559 5567 5576 5584 5590 5595 5600 5606 5613 5619 5624 5629 5633 5636 5639 5641
5641 5629 5618 5609 5600 5591 5583 5575 5566 5557 5547 5538 5530 5523 5516 5510 5505 5501 5498 5495 5493 5494 5500 5507 5517 5527 5535 5542 5550 5558 5567 5576 5582 5587 5591 5596 5602 5608 5615 5621 5625 5629 5632 5635
5628 5618 5609 5600 5592 5583 5574 5565 5555 5545 5535 5526 5517 5509 5502 5497 5492 5488 5486 5483 5483 5484 5490 5499 5509 5518 5527 5535 5543 5551 5561 5569 5575 5580 5584 5589 5594 5601 5607 5613 5618 5622 5626 5628
5618 5609 5600 5592 5584 5576 5566 5555 5545 5534 5524 5514 5504 5495 5488 5482 5478 5474 5473 5472 5473 5476 5483 5492 5502 5512 5521 5529 5537 5546 5555 5563 5569 5574 5579 5584 5590 5596 5602 5607 5612 5616 5619 5622
5609 5600 5592 5584 5576 5568 5558 5548 5536 5525 5514 5503 5492 5482 5474 5468 5463 5461 5461 5462 5465 5470 5477 5487 5497 5507 5516 5524 5532 5541 5550 5558 5564 5570 5575 5581 5586 5592 5598 5602 5607 5610 5614 5617
5601 5593 5586 5578 5570 5561 5552 5541 5530 5517 5505 5493 5481 5470 5461 5455 5451 5451 5452 5455 5459 5466 5475 5485 5495 5504 5512 5520 5529 5537 5546 5553 5560 5566 5571 5577 5583 5589 5594 5598 5602 5606 5609 5612
5594 5587 5580 5573 5565 5556 5547 5537 5525 5512 5499 5486 5474 5462 5453 5447 5444 5445 5447 5452 5457 5465 5474 5484 5493 5502 5510 5517 5526 5534 5542 5549 5556 5562 5568 5574 5580 5585 5590 5595 5599 5602 5605 5608
5588 5582 5575 5568 5561 5553 5544 5534 5523 5511 5498 5484 5471 5460 5451 5446 5444 5445 5448 5453 5459 5467 5476 5485 5494 5502 5509 5516 5524 5532 5539 5546 5553 5559 5565 5571 5577 5582 5587 5592 5596 5599 5602 5604
5583 5577 5571 5565 5558 5551 5542 5532 5522 5511 5498 5485 5473 5463 5455 5451 5449 5450 5453 5458 5464 5472 5480 5488 5496 5502 5509 5515 5522 5530 5537 5544 5550 5556 5563 5569 5574 5580 5585 5589 5593 5596 5598 5600
5579 5574 5569 5564 5558 5551 5542 5533 5523 5513 5502 5491 5481 5472 5465 5460 5458 5459 5462 5467 5472 5479 5485 5492 5498 5503 5509 5515 5522 5529 5536 5542 5549 5555 5561 5567 5572 5577 5582 5586 5590 5593 5595 5597